Flag for Canada Weather past 2 weeks in Thunder Bay, Ontario, Canada

Now
57 °F

Partly cloudy.


Feels Like: 57 °F
Forecast: 53 / 73 °F
Wind: 2 mph from Northwest

Location: Thunder Bay

Current Time: Jul 30, 2014 at 11:57:54 PM

Latest Report: Jul 30, 2014 at 11:00 PM


Visibility: 15 mi

Pressure: 29.94 "Hg

Humidity: 94%

Dew point: 55 °F

Location of Thunder BayLocation

Historic Weather in Thunder Bay — Graph

°F

Thunder Bay temperature yesterday

Maximum temperature yesterday: 72 °F (at 7:00 PM)
Minimum temperature yesterday: 54 °F (at 11:00 PM)
Average temperature yesterday: 62 °F

Past Weeks' High & Low Weather Summary

 TemperatureHumidityPressure
High90 °F (Jul 21, 3:00 PM)100% (Jul 17, 5:00 AM)30.25 "Hg (Jul 17, 5:00 AM)
Low45 °F (Jul 30, 7:00 AM)30% (Jul 16, 7:00 PM)29.64 "Hg (Jul 22, 11:00 AM)
Average63 °F79%29.93 "Hg
* Reported Jul 15 10:00 PM — Jul 30 10:00 PM, Thunder Bay, Weather by CustomWeather, © 2014

Note: Actual official high and low records may vary slightly from our data, if they occured in-between our weather recording intervals... More about our weather records

Advertising

Thunder Bay weather history for previous 24 hours

 ConditionsComfort  
Time TempWeatherWind HumidityBarometerVisibility
10:00 PM
Jul 30
61 °FPartly sunny.No wind94%29.94 "Hg20 mi
9:00 PM63 °FOvercast.5 mph88%29.93 "Hg20 mi
8:00 PM70 °FOvercast.3 mph73%29.93 "Hg20 mi
7:00 PM72 °FBroken clouds.6 mph65%29.93 "Hg20 mi
6:00 PM70 °FBroken clouds.No wind57%29.93 "Hg20 mi
5:00 PM70 °FMore clouds than sun.7 mph64%29.93 "Hg20 mi
4:00 PM68 °FPartly sunny.12 mph73%29.94 "Hg20 mi
3:00 PM70 °FBroken clouds.6 mph73%29.93 "Hg20 mi
2:00 PM63 °FSprinkles. Partly sunny.2 mph88%29.95 "Hg20 mi
1:48 PM61 °FLight rain. Partly sunny.6 mph94%29.96 "Hg20 mi
1:00 PM66 °FThunderstorms. More clouds than sun.2 mph78%29.95 "Hg20 mi
12:00 PM64 °FMore clouds than sun.2 mph78%29.97 "Hg20 mi
11:00 AM63 °FMostly cloudy.7 mph77%29.99 "Hg20 mi
10:00 AM59 °FMore clouds than sun.6 mph77%30.01 "Hg20 mi
9:00 AM54 °FMostly cloudy.6 mph88%30.03 "Hg20 mi
8:00 AM48 °FScattered clouds.5 mph94%30.04 "Hg20 mi
7:00 AM45 °FPassing clouds.5 mph100%30.04 "Hg20 mi
6:00 AM46 °FPassing clouds.5 mph93%30.04 "Hg20 mi
5:00 AM46 °FClear.6 mph93%30.04 "Hg15 mi
4:00 AM46 °FClear.5 mph100%30.04 "Hg15 mi
3:00 AM46 °FClear.5 mph93%30.05 "Hg15 mi
2:00 AM50 °FClear.3 mph94%30.06 "Hg15 mi
1:00 AM50 °FClear.No wind94%30.06 "Hg15 mi
12:00 AM52 °FClear.5 mph88%30.05 "Hg15 mi
11:00 PM
Jul 29
54 °FPassing clouds.3 mph82%30.04 "Hg15 mi
Weather by CustomWeather, © 2014

See weather overviewHow to use our weather pages